EW1931 Weather Reports


time (UTC)temp
C
wind
direction
speed
KPH
gust
KPH
rain 1hr
cm
rain 24hr
cm
rain mn
cm
humidity
%
barometer
mb
20260507113053 5 306 11.3 17.7 0.00 0.00 0.00 55 923.8
20260507111531 6 286 9.7 17.7 0.00 0.00 0.00 55 923.7
20260507110036 6 288 11.3 14.5 0.00 0.00 0.00 55 923.8
20260507104515 6 267 11.3 16.1 0.00 0.00 0.00 56 923.7
20260507103013 6 223 12.9 16.1 0.00 0.00 0.00 56 923.8
20260507101559 6 244 11.3 16.1 0.00 0.00 0.00 58 923.7
20260507100050 6 221 11.3 16.1 0.00 0.00 0.00 57 923.4
20260507094532 6 355 6.4 9.7 0.00 0.00 0.00 56 923.5
20260507093030 6 19 11.3 16.1 0.00 0.00 0.00 57 923.6
20260507091510 6 13 12.9 16.1 0.00 0.00 0.00 57 923.5
20260507090009 6 9 12.9 17.7 0.00 0.00 0.00 56 923.3
20260507084555 6 26 11.3 16.1 0.00 0.00 0.00 57 923.1
20260507083051 6 10 9.7 16.1 0.00 0.00 0.00 58 923.1
20260507081542 6 37 9.7 14.5 0.00 0.00 0.00 59 923.2
20260507080036 6 36 11.3 16.1 0.00 0.00 0.00 59 923.1
20260507074538 6 23 9.7 11.3 0.00 0.00 0.00 58 923.0
20260507073030 8 35 8.0 11.3 0.00 0.00 0.00 55 923.1
20260507071535 8 80 6.4 8.0 0.00 0.00 0.00 55 923.1
20260507070033 8 86 8.0 12.9 0.00 0.00 0.00 55 923.1
20260507064537 9 47 11.3 20.9 0.00 0.00 0.00 55 923.1
20260507063027 11 51 17.7 25.7 0.00 0.00 0.00 49 923.0
20260507061533 12 66 19.3 29.0 0.00 0.00 0.00 47 923.3
20260507060009 12 73 9.7 22.5 0.00 0.00 0.00 46 923.2
20260507054532 13 74 22.5 27.4 0.00 0.00 0.00 35 922.7
20260507053039 12 79 19.3 22.5 0.00 0.00 0.00 36 922.7
20260507051538 12 66 9.7 25.7 0.00 0.00 0.00 36 922.8
20260507050021 11 75 14.5 22.5 0.00 0.00 0.00 37 922.6
20260507044519 11 65 12.9 12.9 0.00 0.00 0.00 36 922.8
20260507043002 12 67 9.7 14.5 0.00 0.00 0.00 36 922.8
20260507041501 12 83 1.6 8.0 0.00 0.00 0.00 33 923.0
20260507040043 12 107 9.7 12.9 0.00 0.00 0.00 33 923.1
20260507034557 12 307 3.2 8.0 0.00 0.00 0.00 33 923.3
20260507033025 12 94 1.6 9.7 0.00 0.00 0.00 33 922.8
20260507031524 12 78 9.7 12.9 0.00 0.00 0.00 36 922.5
20260507030008 12 86 12.9 16.1 0.00 0.00 0.00 36 922.4
20260507024508 13 84 14.5 16.1 0.00 0.00 0.00 34 922.3
20260507023007 14 82 6.4 16.1 0.00 0.00 0.00 34 922.4
20260507021506 16 107 9.7 12.9 0.00 0.00 0.00 28 922.3
20260507020005 16 100 3.2 11.3 0.00 0.00 0.00 28 922.4
20260507014505 16 97 9.7 12.9 0.00 0.00 0.00 28 922.5
20260507013006 17 81 11.3 14.5 0.00 0.00 0.00 28 922.6
20260507011504 18 65 6.4 12.9 0.00 0.00 0.00 23 922.6
20260507010048 20 53 8.0 16.1 0.00 0.00 0.00 22 922.8
20260507004542 20 19 9.7 19.3 0.00 0.00 0.00 21 922.8
20260507003029 21 309 4.8 8.0 0.00 0.00 0.00 21 922.8
20260507001530 21 288 8.0 9.7 0.00 0.00 0.00 22 923.0
20260507000029 20 248 9.7 14.5 0.00 0.00 0.00 21 923.0
20260506234543 20 253 11.3 20.9 0.00 0.00 0.00 21 923.1
20260506233023 21 304 16.1 20.9 0.00 0.00 0.00 21 923.3
20260506231520 21 317 16.1 22.5 0.00 0.00 0.00 21 923.5
20260506230019 21 263 12.9 22.5 0.00 0.00 0.00 19 923.7
20260506224525 20 320 11.3 20.9 0.00 0.00 0.00 20 924.0
20260506223059 20 55 4.8 22.5 0.00 0.00 0.00 20 924.2
20260506221553 20 242 9.7 22.5 0.00 0.00 0.00 20 924.5
20260506220040 20 301 17.7 27.4 0.00 0.00 0.00 21 924.7
20260506214529 19 273 11.3 29.0 0.00 0.00 0.00 21 924.8
20260506213009 19 260 6.4 30.6 0.00 0.00 0.00 22 925.1
20260506211513 18 296 19.3 32.2 0.00 0.00 0.00 22 925.3
20260506210047 18 293 16.1 22.5 0.00 0.00 0.00 23 925.5
20260506204545 18 340 3.2 16.1 0.00 0.00 0.00 22 925.6
20260506203025 17 229 8.0 29.0 0.00 0.00 0.00 23 925.9
20260506201521 17 263 14.5 32.2 0.00 0.00 0.00 23 926.2
20260506200003 16 225 11.3 33.8 0.00 0.00 0.00 23 926.4
20260506194600 16 298 6.4 27.4 0.00 0.00 0.00 23 926.6
20260506193038 15 231 20.9 27.4 0.00 0.00 0.00 23 927.0
20260506191533 15 222 14.5 19.3 0.00 0.00 0.00 24 927.2
20260506190012 14 192 14.5 37.0 0.00 0.00 0.00 24 927.6
20260506184510 14 178 17.7 27.4 0.00 0.00 0.00 24 927.8
20260506183043 13 186 4.8 25.7 0.00 0.00 0.00 24 928.0
20260506181557 12 248 8.0 22.5 0.00 0.00 0.00 25 928.3
20260506180021 12 199 16.1 33.8 0.00 0.00 0.00 26 928.5
20260506174516 12 226 11.3 27.4 0.00 0.00 0.00 28 928.9
20260506173122 11 180 12.9 25.7 0.00 0.00 0.00 30 929.2
20260506171602 11 224 8.0 20.9 0.00 0.00 0.00 31 929.5
20260506170033 11 229 14.5 20.9 0.00 0.00 0.00 35 929.5
20260506164530 10 153 12.9 24.1 0.00 0.00 0.00 35 929.7
20260506163010 9 184 12.9 19.3 0.00 0.00 0.00 41 930.0
20260506161505 8 178 14.5 25.7 0.00 0.00 0.00 46 930.2
20260506160058 7 189 16.1 22.5 0.00 0.00 0.00 49 930.4
20260506154544 6 185 12.9 20.9 0.00 0.00 0.00 50 930.8
20260506153020 6 207 11.3 14.5 0.00 0.00 0.00 51 931.1
20260506151518 5 192 11.3 19.3 0.00 0.00 0.00 51 931.2
20260506144554 3 196 11.3 17.7 0.00 0.00 0.00 52 931.6
20260506143035 2 213 8.0 11.3 0.00 0.00 0.00 51 931.7
20260506141528 1 197 8.0 14.5 0.00 0.00 0.00 52 931.8
20260506140007 0 190 8.0 12.9 0.00 0.00 0.00 53 931.7
20260506134504 0 175 6.4 9.7 0.00 0.00 0.00 54 931.8
20260506133045 0 198 6.4 9.7 0.00 0.00 0.00 56 931.8
20260506131555 -1 201 6.4 9.7 0.00 0.00 0.00 60 931.9
20260506130033 -2 211 8.0 11.3 0.00 0.00 0.00 62 931.9
20260506124518 -4 211 8.0 9.7 0.00 0.00 0.00 64 932.0
20260506123101 -5 198 4.8 8.0 0.00 0.00 0.00 64 931.9
20260506123001 -5 197 6.4 11.3 0.00 0.00 0.00 64 931.9
20260506121601 -5 194 9.7 11.3 0.00 0.00 0.00 63 932.1
20260506120038 -3 175 6.4 11.3 0.00 0.00 0.00 61 932.0
20260506114537 -3 247 4.8 6.4 0.00 0.00 0.00 62 932.1